Погода в Яшкуле

Погода в Яшкуле : погода сейчас, прогноз погоды и архив. Всё, что Вы хотите узнать о погоде в Яшкуле!

Хотите узнать прогноз погоды в Яшкуле? Тогда Вам сюда: Погода в Яшкуле

Поиск расширенной информации на нашем сайте:

Другие новости

Новости СМИ2

Главная страница сайта

Новости сайта

02.10.2013

Напоминаем, что на нашем новом сайте вы можете получить высокодетализированные прогнозы погоды по пунктам России, СНГ и мира (включающие важные для авиации метеовеличины, такие как направление и скорость ветра, видимость, явления погоды, количество и форма облачности, нижняя и верхняя граница облачности), а также ознакомиться с разнообразными материалами по авиационной метеорологии и подборкой полезных ссылок на эту тему.

Сайт Метеоцентр.Азия посвящён разработке технологий оптимизации авиаметеорологического обслуживания, включая проектирование и перспективное создание нескольких автоматизированных авиаметеорологических систем:
- система выпуска высокодетальных прогностических карт явлений погоды для нижнего воздушного пространства по России и ближнему зарубежью;
- система верификации прогнозов TAF (выпускаемых синоптиками официальных АМСГ РФ и ближнего зарубежья) и AUTOTAF (выпускаемых сайтом Метеоцентр.Азия) - выявление ошибок, онлайн-сопоставление с фактической погодой METAR, автоматическое внесение коррективов в прогнозы при резком отклонении фактической погоды от прогноза, подсчёт оправдываемости прогнозов по элементам и в целом;
- система обработки, анализа и отображения авиаметеорологической информации для применения провайдерами метеорологической информации.

Рекомендуем: Одн-2003 - противогололедные материалы.

Погода в Яшкуле - сегодня

Время (UTC), дата Ветер
(°,м/с) 
Видим.   Явления Облачность Т
(°С)
Тd
(°С)
f(%) Тe
(°С)
Pmin
(гПа)
dP
(гПа)
Po
(мм)
O2
(г/м3)
Тmin Tmax R s Состояние
почвы
09 25.05.17 030 (СВ) 20000 м    8/0 средняя 
[Ac trans]
+21.9 +0.6 24 +22  1017.7  -0.8  764  285           
12 25.05.17 100 (В) 20000 м    9/6 600 м кучево-дожд., средняя 
[Cb cap|Ac trans]
+22.4 +0.6 24 +22  1016.9  -0.8  763  284           
15 25.05.17 240 (ЮЗ) 20000 м    10/6 600 м кучево-дожд., средняя 
[Cb cap|Ac As]
+20.5 +3.4 32 +21  1016.9  763  286    +23.5       
18 25.05.17 220 (ЮЗ) 4{10}  20000 м    10/6 600 м кучево-дожд., средняя 
[Cb cap|Ac As]
+16 +7.8 58 +16  1017.5  0.6  764  289           
21 25.05.17 230 (ЮЗ) 20000 м    ясно 
+14.4 +9.2 71 +15  1017  -0.4  763  291           
00 26.05.17 230 (ЮЗ) 20000 м    ясно 
+11.4 +7.7 78 +11  1016.6  -0.4  763  294           
03 26.05.17 280 (З) 20000 м    ясно 
+11.5 +8.1 80 +11  1016.6  -0.1  763  294  +9.2         
06 26.05.17 320 (СЗ) 20000 м    ясно 
+21.6 +3 29 +22  1016.4  -0.2  763  284           
09 26.05.17 300 (СЗ) 20000 м    3/3 1000 м верхняя 
[Cu hum|Ci fib]
+24.2 +0.1 20 +24  1015.5  -0.9  762  282           
12 26.05.17 300 (СЗ) 20000 м    3/3 1000 м верхняя 
[Cu hum|Ci fib]
+25 +0.3 20 +25  1014.5  -1  761  281           
15 26.05.17 260 (З) 20000 м    ясно 
+24.1 +0.3 21 +24  1013.6  -0.9  761  282    +25.2       
18 26.05.17 260 (З) 20000 м    ясно 
+18.5 +7 47 +19  1013.8  0.2  761  286           
21 26.05.17 240 (ЮЗ) 20000 м    ясно 
+14.8 +8.3 65 +15  1013.3  -0.5  761  289           
00 27.05.17 280 (З) 20000 м    ясно 
+13.1 +7.7 70 +14  1013.1  -0.2  760  291           
06 27.05.17 260 (З) 20000 м    ясно 
+23.7 +4.3 28 +24  1012.8  -0.4  760  281           
09 27.05.17 250 (З) 20000 м    3/3 1000 м 
[Cu hum]
+25.8 +2.9 23 +26  1011.9  -0.9  760  279           
12 27.05.17 210 (ЮЗ) 20000 м    3/0 средняя, верхняя 
[Ac trans|Ci fib]
+26.6 +2.6 21 +27  1010.5  -1.4  758  278           
18 27.05.17 240 (ЮЗ) 20000 м    6/0 средняя 
[Ac trans]
+20.7 +8.4 45 +21  1011.2  0.6  759  283           
21 27.05.17 250 (З) н/о    н/о 
+17.1 +10.6 66 +21  1011.3  0.1  759  286           
00 28.05.17 230 (ЮЗ) 20000 м    ясно 
+15.9 +10.6 71 +19  1011.3  759  287           
06 28.05.17 270 (З) 20000 м    4/0 средняя, верхняя 
[Ac trans|Ci sp]
+25.1 +6.9 31 +25  1011.7  759  279           
09 28.05.17 260 (З) 20000 м    8/6 600 м средняя, верхняя 
[Cu med, cong|Ac trans|Ci fib]
+26.8 +6.2 27 +27  1011.5  0.1  759  278           
18 28.05.17 280 (З) 20000 м    4/0 средняя 
[Ac trans]
+18.8 +12.2 65 +23  1014.4  1.8  761  285           
21 28.05.17 270 (З) 20000 м    ясно 
+14.6 +8.8 68 +15  1016  1.6  763  290           
00 29.05.17 250 (З) 20000 м    ясно 
+12.5 +6.9 69 +12  1016.6  0.6  763  293           
Время (UTC), дата Ветер
(°,м/с) 
Видим.   Явления Облачность Т
(°С)
Тd
(°С)
f(%) Тe
(°С)
Pmin
(гПа)
dP
(гПа)
Po
(мм)
O2
(г/м3)
Тmin Tmax R s Состояние
почвы

Для получения пояснительной информации подведите курсор к названию столбца.

ПОГОДА в Яшкуле - архив

Всё, что Вы хотите узнать о погоде в Яшкуле - удобно и подробно!

Выберите нужную дату (начиная с 1 января 2015* года) и нажмите кнопку "Найти".
Будут отображены архивные сводки погоды по пункту Яшкуль, начиная с указанной даты.


Отображать данные в формате CSV (для использования в таблицах Excel)


Внимание! Наш архив погоды предназначен исключительно для личного некоммерческого использования в познавательных целях. Если Вам необходимы официальные справки о состоянии погоды (для производственных, юридических, коммерческих и т.п. целей), обращайтесь в органы Росгидромета.

*Примечание: данная дата относится к архиву по метеостанциям СССР (Россия, СНГ, Балтия).
Архив по метеостанциям Зарубежной Европы и Азии (кроме Китая) хранится 10 дней, по другим регионам земного шара (Китай, Африка, Америка, Австралия, Океания) - 1 день.

Яшкуль - район местоположения метеостанции


Название, широта, долгота, высота метеостанции:
Яшкуль 46.2°ш. 45.3°д. -7 м над ур. моря [Российская Федерация]

Дополнительная информация

В oтличие oт бoльшинства пoгoдных сайтoв мы публикуем пoдрoбную метеoинфoрмацию в детальнoм прoфессиoнальнoм фoрмате.

Характеристики температуры и влажнoсти вoздуха измеряются на высoте 2 м в тени вдали oт зданий и деревьев.
Скoрoсть ветра измеряется на высoте 10 м (на урoвне рoста челoвека скoрoсть ветра ниже в 1.5-2 раза). Если метеoстанция нахoдится в гoрoде или в лесу, тo скoрoсть ветра занижена на 2-4 м/с пo сравнению с oткрытым местoм. Скoрoсть ветра над акватoриями крупных рек и oзёр, а также на вершинах хoлмoв на 2-5 м/с выше, чем в oбычных услoвиях.
Атмoсфернoе давление в разных тoчках местнoсти мoжет значительнo oтличаться oт давления на метеoстанции, в зависимoсти oт услoвий рельефа (при пoдъёме на 10 м давление пoнижается примернo на 1 мм рт.ст.).